Location: Dallas
(32.7833°N, 96.8000°W)
Time: 00:22:57
(UTC-06:00)

Envisat - Pass Details

Date: 29 January 2021
Orbit: 764 x 766 km, 98.1° (Epoch: 06 March)

Event Time Altitude Azimuth Distance (km) Brightness Sun altitude
Rises 06:09:05 0° 11° (NNE) 3,235 6.3 -15.9°
Reaches altitude 10° 06:11:24 10° 12° (NNE) 2,305 5.5 -15.4°
Maximum altitude 06:16:29 88° 284° (WNW) 769 2.9 -14.4°
Drops below altitude 10° 06:21:32 10° 195° (SSW) 2,290 5.5 -13.4°
Sets 06:23:50 0° 194° (SSW) 3,212 6.2 -12.9°
